Location: Miles
(41.4492°N, 81.6087°W)
Time: 18:44:44
(UTC+00:00)

Tiros 1 despin weight - Pass Details

Date: 14 September 2024
Orbit: 573 x 615 km, 48.2° (Epoch: 04 October)

Event Time Altitude Azimuth Distance (km) Brightness Sun altitude
Rises 11:42:58 0° 285° (WNW) 2,889 ? 6.0°
Reaches altitude 10° 11:45:27 10° 294° (WNW) 1,985 ? 6.5°
Maximum altitude 11:49:38 35° 1° (N) 1,014 ? 7.3°
Drops below altitude 10° 11:53:49 10° 67° (ENE) 1,980 ? 8.0°
Sets 11:56:18 0° 77° (ENE) 2,881 ? 8.5°
